| time (UTC) | temp C | wind direction | speed KPH | gust KPH | rain 1hr cm | rain 24hr cm | rain mn cm | humidity % | barometer mb |
| 20260506153029 | 16 | 258 | 16.1 | 29.0 | 0.00 | 0.00 | 0.00 | 72 | 1015.7 |
| 20260506151530 | 16 | 251 | 4.8 | 16.1 | 0.00 | 0.00 | 0.00 | 72 | 1015.7 |
| 20260506150031 | 16 | 255 | 0.0 | 4.8 | 0.00 | 0.00 | 0.00 | 73 | 1015.7 |
| 20260506144646 | 15 | 233 | 1.6 | 4.8 | 0.00 | 0.00 | 0.00 | 78 | 1015.8 |
| 20260506143030 | 13 | 222 | 0.0 | 4.8 | 0.00 | 0.00 | 0.00 | 81 | 1015.8 |
| 20260506141608 | 12 | 196 | 0.0 | 6.4 | 0.00 | 0.00 | 0.00 | 86 | 1015.7 |
| 20260506140106 | 11 | 156 | 3.2 | 8.0 | 0.00 | 0.00 | 0.00 | 88 | 1015.6 |
| 20260506134534 | 11 | 147 | 3.2 | 11.3 | 0.00 | 0.00 | 0.00 | 88 | 1015.5 |
| 20260506133029 | 10 | 156 | 4.8 | 9.7 | 0.00 | 0.00 | 0.00 | 90 | 1015.4 |
| 20260506131532 | 10 | 152 | 3.2 | 4.8 | 0.00 | 0.00 | 0.00 | 89 | 1015.3 |
| 20260506130031 | 10 | 62 | 3.2 | 9.7 | 0.00 | 0.00 | 0.00 | 89 | 1015.3 |
| 20260506123030 | 10 | 83 | 1.6 | 8.0 | 0.00 | 0.00 | 0.00 | 89 | 1015.0 |
| 20260506121533 | 10 | 40 | 1.6 | 4.8 | 0.00 | 0.00 | 0.00 | 89 | 1014.8 |
| 20260506120107 | 10 | 47 | 3.2 | 6.4 | 0.00 | 0.00 | 0.00 | 90 | 1014.8 |
| 20260506113031 | 10 | 93 | 1.6 | 4.8 | 0.00 | 0.00 | 0.00 | 90 | 1014.5 |
| 20260506110030 | 10 | 258 | 0.0 | 6.4 | 0.00 | 0.00 | 0.00 | 88 | 1014.1 |
| 20260506103030 | 11 | 17 | 0.0 | 6.4 | 0.00 | 0.00 | 0.00 | 88 | 1013.9 |
| 20260506101532 | 10 | 46 | 4.8 | 6.4 | 0.00 | 0.00 | 0.00 | 88 | 1013.9 |
| 20260506100048 | 10 | 118 | 0.0 | 4.8 | 0.00 | 0.00 | 0.00 | 86 | 1013.9 |
| 20260506094532 | 11 | 1 | 3.2 | 8.0 | 0.00 | 0.00 | 0.00 | 86 | 1013.9 |
| 20260506093031 | 11 | 340 | 1.6 | 6.4 | 0.00 | 0.00 | 0.00 | 86 | 1013.8 |
| 20260506091529 | 11 | 303 | 3.2 | 9.7 | 0.00 | 0.00 | 0.00 | 86 | 1013.8 |
| 20260506084603 | 11 | 287 | 6.4 | 14.5 | 0.00 | 0.00 | 0.00 | 86 | 1013.6 |
| 20260506081607 | 11 | 301 | 4.8 | 11.3 | 0.00 | 0.00 | 0.00 | 86 | 1013.4 |
| 20260506073031 | 11 | 5 | 3.2 | 6.4 | 0.00 | 0.00 | 0.00 | 84 | 1013.1 |
| 20260506061532 | 12 | 359 | 11.3 | 19.3 | 0.00 | 0.00 | 0.00 | 82 | 1012.6 |
| 20260506050144 | 13 | 354 | 9.7 | 14.5 | 0.00 | 0.00 | 0.00 | 78 | 1012.0 |
| 20260506044532 | 13 | 2 | 8.0 | 12.9 | 0.00 | 0.00 | 0.00 | 77 | 1011.8 |
| 20260506043029 | 13 | 359 | 6.4 | 11.3 | 0.00 | 0.00 | 0.00 | 76 | 1011.6 |
| 20260506041605 | 14 | 348 | 9.7 | 17.7 | 0.00 | 0.00 | 0.00 | 76 | 1011.5 |
| 20260506034529 | 14 | 337 | 9.7 | 19.3 | 0.00 | 0.00 | 0.00 | 73 | 1011.1 |
| 20260506033106 | 15 | 345 | 8.0 | 12.9 | 0.00 | 0.00 | 0.00 | 71 | 1010.8 |
| 20260506031532 | 16 | 2 | 11.3 | 19.3 | 0.00 | 0.00 | 0.00 | 70 | 1010.6 |
| 20260506030032 | 16 | 347 | 11.3 | 20.9 | 0.00 | 0.00 | 0.00 | 69 | 1010.4 |
| 20260506024531 | 16 | 343 | 11.3 | 20.9 | 0.00 | 0.00 | 0.00 | 68 | 1010.2 |
| 20260506023029 | 17 | 358 | 11.3 | 20.9 | 0.00 | 0.00 | 0.00 | 66 | 1010.1 |
| 20260506021531 | 17 | 353 | 11.3 | 19.3 | 0.00 | 0.00 | 0.00 | 65 | 1009.9 |
| 20260506020030 | 17 | 7 | 12.9 | 22.5 | 0.00 | 0.00 | 0.00 | 65 | 1009.8 |
| 20260506014531 | 18 | 4 | 12.9 | 20.9 | 0.00 | 0.00 | 0.00 | 64 | 1009.8 |
| 20260506013032 | 18 | 344 | 11.3 | 19.3 | 0.00 | 0.00 | 0.00 | 63 | 1009.8 |
| 20260506011531 | 19 | 341 | 11.3 | 17.7 | 0.00 | 0.00 | 0.00 | 61 | 1009.7 |
| 20260506010031 | 20 | 338 | 11.3 | 24.1 | 0.00 | 0.00 | 0.00 | 60 | 1009.7 |
| 20260506004532 | 21 | 333 | 12.9 | 24.1 | 0.00 | 0.00 | 0.00 | 58 | 1009.7 |
| 20260506003029 | 21 | 334 | 12.9 | 24.1 | 0.00 | 0.00 | 0.00 | 57 | 1009.6 |
| 20260506001542 | 22 | 346 | 11.3 | 19.3 | 0.00 | 0.00 | 0.00 | 57 | 1009.5 |
| 20260505234530 | 22 | 336 | 9.7 | 17.7 | 0.00 | 0.00 | 0.00 | 57 | 1009.9 |
| 20260505233031 | 22 | 342 | 11.3 | 20.9 | 0.00 | 0.00 | 0.00 | 56 | 1009.9 |
| 20260505231531 | 23 | 347 | 11.3 | 20.9 | 0.00 | 0.00 | 0.00 | 56 | 1009.9 |
| 20260505230032 | 23 | 327 | 11.3 | 16.1 | 0.00 | 0.00 | 0.00 | 56 | 1010.0 |
| 20260505224532 | 23 | 293 | 8.0 | 16.1 | 0.00 | 0.00 | 0.00 | 56 | 1010.2 |
| 20260505223029 | 23 | 323 | 11.3 | 19.3 | 0.00 | 0.00 | 0.00 | 56 | 1010.2 |
| 20260505221532 | 23 | 332 | 11.3 | 22.5 | 0.00 | 0.00 | 0.00 | 56 | 1010.4 |
| 20260505220031 | 23 | 295 | 9.7 | 22.5 | 0.00 | 0.00 | 0.00 | 55 | 1010.6 |
| 20260505214532 | 23 | 292 | 11.3 | 22.5 | 0.00 | 0.00 | 0.00 | 56 | 1010.7 |
| 20260505213104 | 23 | 292 | 11.3 | 22.5 | 0.00 | 0.00 | 0.00 | 55 | 1010.7 |
| 20260505211530 | 23 | 291 | 11.3 | 20.9 | 0.00 | 0.00 | 0.00 | 55 | 1010.7 |
| 20260505210030 | 23 | 286 | 11.3 | 20.9 | 0.00 | 0.00 | 0.00 | 56 | 1010.9 |
| 20260505204531 | 22 | 291 | 12.9 | 24.1 | 0.00 | 0.00 | 0.00 | 55 | 1011.1 |
| 20260505203038 | 22 | 286 | 12.9 | 22.5 | 0.00 | 0.00 | 0.00 | 56 | 1011.1 |
| 20260505201529 | 22 | 287 | 12.9 | 24.1 | 0.00 | 0.00 | 0.00 | 56 | 1011.2 |
| 20260505200032 | 22 | 286 | 11.3 | 22.5 | 0.00 | 0.00 | 0.00 | 56 | 1011.3 |
| 20260505194605 | 22 | 283 | 11.3 | 29.0 | 0.00 | 0.00 | 0.00 | 57 | 1011.4 |
| 20260505193030 | 21 | 275 | 12.9 | 25.7 | 0.00 | 0.00 | 0.00 | 58 | 1011.6 |
| 20260505190106 | 21 | 282 | 12.9 | 22.5 | 0.00 | 0.00 | 0.00 | 59 | 1011.6 |
| 20260505184530 | 20 | 273 | 11.3 | 22.5 | 0.00 | 0.00 | 0.00 | 60 | 1011.8 |
| 20260505183030 | 20 | 279 | 12.9 | 25.7 | 0.00 | 0.00 | 0.00 | 61 | 1011.8 |
| 20260505173029 | 19 | 279 | 12.9 | 24.1 | 0.00 | 0.00 | 0.00 | 63 | 1011.8 |
| 20260505171605 | 18 | 274 | 11.3 | 22.5 | 0.00 | 0.00 | 0.00 | 64 | 1011.7 |
| 20260505170032 | 18 | 271 | 11.3 | 32.2 | 0.00 | 0.00 | 0.00 | 64 | 1011.7 |
| 20260505164531 | 18 | 266 | 9.7 | 19.3 | 0.00 | 0.00 | 0.00 | 65 | 1011.7 |
| 20260505163107 | 17 | 266 | 9.7 | 20.9 | 0.00 | 0.00 | 0.00 | 66 | 1011.7 |
| 20260505161532 | 17 | 263 | 11.3 | 25.7 | 0.00 | 0.00 | 0.00 | 66 | 1011.7 |